QPF
0.00 0.00 0.00 0.00 0.00 0.00 0.00 0.00 0.00 0.00 0.00 0.00 0.00 0.00 0.00 0.00 0.00 0.00 0.00 0.00 0.02 0.00 0.00 0.00 0.00 0.00 0.00 0.00 0.00 0.00 0.02 0.04 0.02 0.00 0.01 0.05 0.08 0.07 0.03 0.03 0.00 0.00 0.00
0.00 0.00 0.00 0.00 0.00 0.00 0.00 0.00 0.00 0.00 0.00 0.00 0.00 0.00 0.00 0.00 0.00 0.00 0.00 0.00 0.00 0.01 0.02 0.00 0.01 0.00 0.02 0.02 0.01 0.00 0.01 0.02 0.04 0.08 0.04 0.02 0.02 0.01 0.03 0.02 0.01 0.00 0.00
0.00 0.00 0.00 0.00 0.00 0.00 0.00 0.00 0.00 0.00 0.00 0.00 0.00 0.00 0.00 0.00 0.00 0.00 0.00 0.00 0.00 0.00 0.02 0.02 0.01 0.01 0.02 0.03 0.00 0.00 0.00 0.01 0.01 0.01 0.00 0.00 0.00 0.00 0.04 0.04 0.01 0.01 0.02
0.00 0.00 0.00 0.00 0.00 0.00 0.00 0.00 0.00 0.00 0.00 0.00 0.00 0.00 0.00 0.00 0.00 0.00 0.00 0.00 0.00 0.00 0.01 0.03 0.03 0.01 0.00 0.00 0.00 0.00 0.00 0.00 0.00 0.00 0.01 0.00 0.00 0.00 0.00 0.01 0.00 0.01 0.01
0.00 0.00 0.00 0.00 0.00 0.00 0.00 0.00 0.00 0.00 0.00 0.00 0.00 0.00 0.00 0.00 0.00 0.00 0.00 0.00 0.00 0.00 0.00 0.01 0.01 0.01 0.00 0.00 0.00 0.00 0.00 0.00 0.00 0.00 0.00 0.00 0.01 0.02 0.02 0.02 0.02 0.03 0.03
0.00 0.00 0.00 0.00 0.00 0.00 0.00 0.00 0.00 0.00 0.00 0.00 0.00 0.00 0.00 0.00 0.00 0.00 0.00 0.00 0.00 0.00 0.00 0.00 0.00 0.00 0.00 0.00 0.00 0.00 0.00 0.00 0.00 0.00 0.00 0.01 0.01 0.01 0.01 0.01 0.02 0.01 0.01
0.00 0.00 0.00 0.00 0.00 0.00 0.00 0.00 0.00 0.00 0.00 0.00 0.00 0.00 0.00 0.00 0.00 0.00 0.00 0.00 0.00 0.00 0.00 0.00 0.00 0.00 0.00 0.00 0.00 0.00 0.00 0.00 0.00 0.00 0.01 0.01 0.00 0.01 0.01 0.00 0.00 0.00 0.00
0.00 0.00 0.00 0.00 0.00 0.00 0.00 0.00 0.00 0.00 0.00 0.00 0.00 0.00 0.00 0.00 0.00 0.00 0.00 0.00 0.00 0.00 0.00 0.00 0.00 0.00 0.00 0.00 0.00 0.00 0.00 0.00 0.00 0.00 0.00 0.00 0.00 0.00 0.00 0.00 0.00 0.00 0.00
0.00 0.00 0.00 0.00 0.00 0.00 0.00 0.00 0.00 0.00 0.00 0.00 0.00 0.00 0.00 0.00 0.00 0.00 0.00 0.00 0.00 0.00 0.00 0.00 0.00 0.00 0.00 0.00 0.00 0.00 0.00 0.00 0.00 0.00 0.00 0.01 0.00 0.00 0.00 0.00 0.00 0.00 0.00
0.00 0.00 0.00 0.00 0.00 0.00 0.00 0.00 0.00 0.01 0.00 0.00 0.00 0.00 0.00 0.00 0.00 0.00 0.00 0.00 0.00 0.00 0.00 0.00 0.00 0.00 0.00 0.00 0.00 0.00 0.00 0.00 0.00 0.00 0.00 0.01 0.02 0.01 0.00 0.00 0.00 0.00 0.00
0.00 0.00 0.01 0.00 0.00 0.00 0.00 0.00 0.05 0.02 0.00 0.00 0.00 0.00 0.00 0.00 0.00 0.00 0.00 0.00 0.00 0.00 0.00 0.00 0.00 0.00 0.00 0.00 0.00 0.00 0.00 0.00 0.00 0.00 0.00 0.00 0.00 0.00 0.00 0.00 0.00 0.00 0.00
0.00 0.00 0.00 0.00 0.00 0.00 0.03 0.00 0.01 0.01 0.00 0.00 0.00 0.00 0.00 0.00 0.00 0.00 0.01 0.00 0.00 0.00 0.00 0.00 0.00 0.00 0.00 0.00 0.00 0.00 0.00 0.00 0.00 0.00 0.00 0.00 0.00 0.00 0.00 0.00 0.00 0.00 0.00
0.00 0.00 0.00 0.00 0.00 0.00 0.00 0.00 0.02 0.01 0.01 0.01 0.00 0.00 0.00 0.00 0.00 0.00 0.00 0.00 0.00 0.00 0.00 0.00 0.00 0.00 0.00 0.00 0.00 0.00 0.00 0.00 0.00 0.00 0.00 0.00 0.00 0.00 0.00 0.00 0.00 0.01 0.02
0.00 0.00 0.00 0.00 0.00 0.00 0.00 0.02 0.02 0.01 0.00 0.02 0.02 0.03 0.03 0.01 0.00 0.00 0.01 0.01 0.03 0.00 0.00 0.00 0.00 0.00 0.00 0.00 0.00 0.00 0.00 0.00 0.00 0.00 0.00 0.00 0.00 0.00 0.00 0.00 0.00 0.00 0.00
0.00 0.00 0.00 0.00 0.00 0.00 0.00 0.08 0.06 0.04 0.03 0.02 0.03 0.05 0.09 0.08 0.02 0.02 0.03 0.00 0.02 0.01 0.01 0.00 0.00 0.00 0.00 0.00 0.00 0.00 0.00 0.00 0.00 0.00 0.00 0.00 0.00 0.00 0.00 0.00 0.00 0.00 0.00
0.00 0.00 0.00 0.00 0.00 0.00 0.00 0.01 0.06 0.04 0.06 0.04 0.03 0.05 0.10 0.10 0.10 0.03 0.01 0.00 0.00 0.00 0.02 0.00 0.00 0.00 0.00 0.00 0.00 0.00 0.00 0.00 0.00 0.00 0.00 0.00 0.00 0.00 0.00 0.00 0.00 0.00 0.00
0.00 0.00 0.00 0.01 0.00 0.00 0.00 0.00 0.04 0.03 0.03 0.04 0.03 0.03 0.09 0.05 0.05 0.12 0.07 0.05 0.01 0.00 0.00 0.00 0.00 0.00 0.00 0.00 0.00 0.00 0.00 0.00 0.00 0.00 0.00 0.00 0.00 0.00 0.00 0.00 0.00 0.00 0.00
0.00 0.00 0.00 0.00 0.00 0.00 0.00 0.00 0.05 0.02 0.01 0.02 0.04 0.04 0.05 0.01 0.02 0.07 0.08 0.09 0.09 0.04 0.00 0.01 0.00 0.00 0.00 0.00 0.00 0.00 0.00 0.00 0.00 0.00 0.00 0.00 0.00 0.00 0.00 0.00 0.00 0.00 0.00
0.00 0.00 0.00 0.00 0.00 0.00 0.00 0.00 0.00 0.00 0.01 0.03 0.01 0.02 0.05 0.02 0.00 0.01 0.01 0.02 0.02 0.01 0.00 0.01 0.00 0.00 0.00 0.00 0.00 0.00 0.01 0.01 0.00 0.00 0.00 0.00 0.00 0.00 0.00 0.00 0.00 0.00 0.00
0.00 0.00 0.00 0.00 0.01 0.00 0.00 0.00 0.00 0.00 0.00 0.00 0.00 0.00 0.00 0.00 0.00 0.02 0.01 0.02 0.03 0.02 0.00 0.00 0.00 0.00 0.00 0.00 0.00 0.00 0.00 0.00 0.00 0.00 0.00 0.00 0.00 0.00 0.00 0.00 0.00 0.00 0.00
0.00 0.00 0.00 0.00 0.00 0.00 0.00 0.00 0.00 0.00 0.01 0.02 0.02 0.02 0.00 0.00 0.00 0.00 0.00 0.03 0.03 0.04 0.00 0.00 0.00 0.00 0.00 0.00 0.01 0.00 0.00 0.00 0.00 0.00 0.00 0.00 0.00 0.00 0.00 0.00 0.00 0.00 0.00
0.00 0.00 0.00 0.00 0.00 0.00 0.00 0.00 0.00 0.00 0.00 0.01 0.00 0.00 0.00 0.00 0.00 0.00 0.00 0.01 0.02 0.03 0.02 0.00 0.00 0.00 0.00 0.00 0.01 0.00 0.00 0.00 0.00 0.00 0.00 0.00 0.00 0.00 0.00 0.00 0.00 0.00 0.00
0.00 0.00 0.00 0.00 0.00 0.00 0.00 0.00 0.03 0.05 0.06 0.02 0.00 0.00 0.00 0.00 0.00 0.00 0.02 0.02 0.00 0.00 0.01 0.01 0.01 0.00 0.00 0.01 0.00 0.00 0.01 0.00 0.00 0.00 0.00 0.00 0.00 0.00 0.00 0.00 0.00 0.00 0.00
0.00 0.00 0.00 0.00 0.00 0.00 0.00 0.00 0.01 0.02 0.02 0.02 0.04 0.07 0.03 0.00 0.01 0.05 0.07 0.06 0.08 0.10 0.04 0.02 0.03 0.02 0.02 0.01 0.01 0.01 0.02 0.01 0.00 0.00 0.00 0.00 0.00 0.00 0.00 0.00 0.00 0.00 0.00
0.00 0.00 0.00 0.00 0.00 0.00 0.00 0.00 0.00 0.01 0.01 0.00 0.00 0.02 0.04 0.02 0.01 0.01 0.00 0.00 0.02 0.06 0.10 0.09 0.06 0.03 0.00 0.00 0.00 0.00 0.00 0.00 0.00 0.00 0.00 0.00 0.00 0.00 0.00 0.00 0.00 0.00 0.00
0.01 0.05 0.01 0.00 0.01 0.00 0.00 0.00 0.00 0.01 0.01 0.00 0.00 0.00 0.00 0.00 0.00 0.00 0.00 0.00 0.00 0.04 0.11 0.06 0.04 0.03 0.01 0.00 0.02 0.01 0.00 0.00 0.00 0.00 0.00 0.00 0.01 0.01 0.01 0.00 0.00 0.00 0.00
MSLP
1018.50 1018.42 1018.41 1018.55 1018.64 1018.60 1018.42 1018.57 1018.67 1018.66 1018.77 1018.81 1018.88 1018.86 1018.69 1018.75 1018.79 1018.80 1018.76 1019.67 1019.88 1019.83 1020.09 1020.36 1020.71 1020.91 1021.07 1021.27 1021.49 1021.77 1022.17 1022.46 1022.72 1023.00 1023.18 1023.36 1023.61 1023.87 1024.09 1024.29 1024.36 1024.46 1024.51
1018.36 1018.26 1018.29 1018.30 1018.39 1018.36 1018.33 1018.49 1018.54 1018.43 1018.51 1018.62 1018.68 1018.73 1018.59 1018.56 1018.65 1018.87 1018.66 1019.14 1019.71 1019.89 1020.03 1020.24 1020.56 1020.81 1020.94 1021.10 1021.26 1021.53 1021.90 1022.30 1022.58 1022.96 1023.07 1023.23 1023.45 1023.62 1023.81 1023.96 1024.08 1024.16 1024.26
1018.22 1018.36 1018.16 1018.37 1018.13 1018.24 1018.39 1018.52 1018.51 1018.43 1018.25 1018.33 1018.52 1018.36 1018.35 1018.35 1018.49 1018.81 1018.63 1018.70 1019.71 1020.03 1020.15 1020.25 1020.33 1020.68 1020.78 1021.06 1021.15 1021.34 1021.75 1022.06 1022.42 1022.70 1022.91 1023.02 1023.17 1023.35 1023.50 1023.65 1023.78 1023.84 1023.97
1018.17 1018.24 1018.13 1018.08 1018.15 1018.14 1018.29 1018.33 1018.47 1018.32 1018.35 1018.37 1018.34 1018.21 1018.10 1018.14 1018.46 1018.68 1018.75 1018.71 1019.06 1019.19 1019.94 1020.16 1020.30 1020.54 1020.83 1020.91 1021.04 1021.20 1021.41 1021.67 1022.00 1022.33 1022.61 1022.75 1022.85 1023.01 1023.17 1023.34 1023.51 1023.63 1023.75
1018.07 1018.12 1018.09 1018.07 1018.12 1018.04 1018.24 1018.34 1018.46 1018.58 1018.41 1018.33 1018.26 1018.26 1018.19 1018.12 1018.28 1018.33 1018.65 1018.83 1019.14 1019.28 1019.35 1019.93 1020.14 1020.52 1020.69 1020.72 1020.79 1021.04 1021.22 1021.48 1021.75 1022.00 1022.30 1022.47 1022.61 1022.70 1022.85 1023.00 1023.23 1023.41 1023.45
1017.77 1017.90 1017.76 1017.91 1017.93 1018.19 1018.39 1018.52 1018.65 1018.73 1018.65 1018.46 1018.18 1018.38 1018.30 1018.31 1018.36 1018.53 1018.50 1018.56 1018.93 1019.25 1019.41 1019.69 1019.68 1019.93 1020.45 1020.44 1020.49 1020.68 1020.98 1021.31 1021.51 1021.59 1021.87 1022.18 1022.32 1022.44 1022.54 1022.67 1022.79 1022.92 1023.03
1017.58 1017.59 1017.47 1017.60 1017.74 1017.98 1018.42 1018.64 1018.68 1018.60 1018.50 1018.67 1018.32 1018.15 1018.31 1018.42 1018.40 1018.44 1018.39 1018.45 1018.71 1018.86 1019.11 1019.43 1019.47 1019.54 1019.78 1020.31 1020.39 1020.50 1020.71 1020.95 1021.18 1021.29 1021.47 1021.78 1021.95 1022.07 1022.14 1022.28 1022.36 1022.44 1022.53
1017.40 1017.43 1017.37 1017.55 1017.67 1017.82 1018.28 1018.58 1018.56 1018.40 1018.55 1018.81 1018.52 1018.42 1017.87 1018.24 1018.24 1018.33 1018.52 1018.55 1018.63 1018.65 1018.74 1019.18 1019.41 1019.55 1019.55 1019.59 1019.75 1020.23 1020.37 1020.57 1020.77 1020.92 1021.06 1021.30 1021.52 1021.67 1021.73 1021.82 1021.91 1022.08 1022.24
1017.13 1017.33 1017.34 1017.48 1017.71 1017.94 1017.94 1018.29 1018.44 1018.41 1018.35 1018.71 1019.01 1018.80 1018.09 1017.64 1017.95 1018.20 1018.37 1018.33 1018.56 1018.62 1018.48 1018.84 1019.11 1019.25 1019.44 1019.38 1019.73 1019.81 1020.04 1020.25 1020.48 1020.64 1020.71 1020.87 1021.11 1021.30 1021.38 1021.53 1021.71 1021.89 1022.03
1016.98 1017.13 1017.35 1017.44 1017.74 1017.70 1017.92 1018.00 1018.20 1018.26 1018.32 1018.28 1018.77 1018.86 1019.00 1018.61 1017.73 1017.38 1017.93 1018.04 1018.25 1018.34 1018.27 1018.31 1018.50 1018.83 1019.09 1019.20 1019.34 1019.38 1019.64 1019.97 1020.27 1020.38 1020.40 1020.50 1020.69 1020.91 1021.07 1021.22 1021.40 1021.61 1021.75
1016.89 1017.06 1017.40 1017.47 1017.59 1017.57 1017.80 1017.72 1018.02 1018.28 1018.17 1018.12 1018.23 1018.47 1018.61 1018.45 1018.23 1017.76 1017.19 1017.47 1017.95 1017.89 1017.99 1017.98 1017.99 1018.19 1018.60 1018.75 1018.78 1018.93 1019.46 1019.75 1019.93 1020.00 1020.08 1020.19 1020.32 1020.46 1020.65 1020.81 1021.02 1021.22 1021.36
1016.73 1016.91 1017.09 1017.23 1017.23 1017.25 1017.40 1017.42 1017.71 1017.94 1017.90 1017.97 1018.12 1018.39 1018.16 1017.93 1017.82 1017.75 1017.41 1017.31 1017.38 1017.45 1017.55 1017.58 1017.60 1017.79 1018.07 1018.28 1018.56 1018.78 1019.08 1019.34 1019.49 1019.58 1019.73 1019.90 1020.07 1020.17 1020.27 1020.38 1020.52 1020.68 1020.81
1016.35 1016.67 1016.83 1016.98 1017.05 1017.09 1017.10 1017.04 1017.43 1017.71 1017.70 1017.69 1017.98 1017.99 1018.09 1017.85 1017.87 1017.81 1017.80 1017.54 1017.34 1017.24 1017.12 1017.25 1017.44 1017.47 1017.61 1017.77 1017.94 1018.54 1018.74 1019.02 1019.08 1019.16 1019.28 1019.53 1019.73 1019.90 1020.02 1020.08 1020.13 1020.16 1020.21
1015.91 1016.21 1016.51 1016.59 1016.71 1016.79 1016.82 1016.83 1017.20 1017.45 1017.69 1017.64 1017.78 1017.87 1017.80 1017.69 1017.71 1017.77 1017.74 1017.54 1017.17 1016.93 1016.84 1016.75 1016.95 1016.98 1017.23 1017.40 1017.57 1018.32 1018.14 1018.51 1018.66 1018.83 1018.97 1019.16 1019.37 1019.54 1019.68 1019.73 1019.78 1019.84 1019.90
1015.74 1015.94 1016.07 1016.40 1016.41 1016.55 1016.61 1016.83 1017.11 1017.31 1017.37 1017.50 1017.59 1017.62 1017.58 1017.65 1017.47 1017.60 1017.67 1017.47 1017.36 1016.99 1016.44 1016.41 1016.54 1017.08 1016.88 1017.10 1017.29 1017.56 1017.58 1017.81 1018.22 1018.39 1018.60 1018.77 1019.00 1019.18 1019.29 1019.38 1019.46 1019.58 1019.66
1015.61 1015.82 1015.96 1016.23 1016.34 1016.40 1016.51 1016.70 1016.83 1016.92 1017.13 1017.22 1017.29 1017.38 1017.37 1017.39 1017.45 1017.36 1017.38 1017.44 1017.52 1017.21 1016.82 1016.55 1016.43 1016.79 1016.75 1016.85 1017.11 1017.35 1017.19 1017.58 1017.84 1018.13 1018.29 1018.41 1018.55 1018.72 1018.90 1019.06 1019.17 1019.20 1019.24
1015.29 1015.52 1015.69 1015.94 1016.14 1016.32 1016.37 1016.59 1016.62 1016.59 1016.68 1016.90 1017.03 1017.12 1017.15 1017.26 1016.97 1017.19 1017.20 1017.38 1017.22 1017.34 1016.88 1016.43 1016.84 1016.66 1016.72 1016.68 1016.63 1016.95 1016.85 1016.85 1016.83 1017.50 1017.81 1017.98 1018.19 1018.36 1018.51 1018.60 1018.65 1018.70 1018.72
1014.90 1015.08 1015.24 1015.43 1015.75 1015.89 1016.03 1016.17 1016.09 1016.25 1016.35 1016.41 1016.64 1016.73 1016.78 1016.78 1016.86 1017.07 1017.18 1017.21 1017.21 1017.34 1017.14 1016.61 1016.39 1016.30 1016.53 1016.53 1016.41 1016.65 1016.42 1016.34 1016.37 1016.73 1017.35 1017.58 1017.75 1017.87 1018.01 1018.11 1018.10 1018.10 1018.17
1014.39 1014.53 1014.93 1015.17 1015.21 1015.37 1015.64 1015.72 1015.84 1015.97 1015.96 1016.06 1016.22 1016.38 1016.53 1016.65 1016.56 1016.54 1016.84 1016.74 1016.68 1016.82 1016.96 1016.64 1016.20 1016.27 1016.24 1016.29 1016.25 1016.33 1016.29 1016.08 1016.04 1016.31 1016.82 1016.92 1017.01 1017.09 1017.13 1017.20 1017.34 1017.48 1017.57
1013.86 1014.05 1014.27 1014.66 1014.78 1014.89 1015.05 1015.22 1015.38 1015.48 1015.52 1015.62 1015.72 1015.89 1015.97 1016.10 1016.19 1016.32 1016.35 1016.50 1016.63 1016.55 1016.46 1016.45 1016.10 1016.01 1016.05 1016.09 1016.16 1015.80 1015.64 1015.80 1015.40 1015.28 1015.65 1015.84 1016.02 1016.26 1016.53 1016.60 1016.67 1016.71 1016.69
1013.41 1013.63 1013.84 1014.10 1014.34 1014.43 1014.40 1014.66 1014.83 1015.00 1015.20 1015.21 1015.32 1015.47 1015.52 1015.67 1015.84 1016.02 1016.02 1015.98 1016.16 1016.20 1015.90 1015.84 1015.79 1015.71 1015.73 1015.75 1015.73 1015.38 1015.38 1015.20 1015.06 1015.16 1014.95 1014.75 1014.81 1014.97 1014.93 1015.54 1015.37 1015.44 1015.45
1013.07 1013.21 1013.33 1013.44 1013.66 1013.72 1013.68 1014.06 1014.18 1014.26 1014.44 1014.62 1014.60 1014.75 1015.04 1015.33 1015.55 1015.59 1015.67 1015.79 1015.91 1015.85 1015.73 1015.42 1015.08 1015.03 1015.16 1015.24 1015.16 1015.20 1015.03 1014.87 1014.42 1014.72 1014.75 1014.12 1014.30 1014.20 1013.97 1013.96 1014.08 1014.44 1014.64
1012.33 1012.54 1012.66 1012.79 1012.87 1013.01 1013.07 1013.33 1013.49 1013.57 1013.71 1013.81 1013.96 1014.08 1014.25 1014.23 1014.66 1014.91 1015.06 1015.29 1015.40 1015.36 1015.25 1015.03 1015.02 1014.84 1014.77 1014.87 1014.96 1014.99 1014.81 1014.68 1014.32 1014.08 1014.67 1013.81 1013.59 1013.56 1013.43 1013.07 1013.60 1013.95 1014.14
1011.43 1011.74 1011.91 1012.05 1012.09 1012.23 1012.49 1012.60 1012.75 1012.97 1012.99 1012.87 1013.18 1013.41 1013.64 1013.78 1014.01 1014.32 1014.56 1014.53 1014.47 1014.44 1014.50 1014.60 1014.49 1014.43 1014.64 1014.73 1014.77 1014.65 1014.77 1014.71 1014.45 1014.29 1014.30 1013.93 1013.43 1012.95 1012.94 1012.74 1013.11 1013.41 1013.65
1010.69 1010.74 1011.04 1011.43 1011.55 1011.60 1011.98 1012.43 1012.71 1012.41 1012.13 1012.10 1012.27 1012.74 1013.07 1013.45 1013.65 1014.07 1014.24 1014.00 1013.87 1013.76 1013.66 1014.13 1014.22 1014.45 1014.66 1014.90 1014.92 1014.80 1014.81 1014.96 1014.58 1014.16 1014.19 1014.23 1013.45 1013.23 1012.92 1012.58 1012.30 1013.32 1013.61
1009.54 1009.93 1010.28 1010.58 1010.86 1011.02 1011.18 1011.70 1012.20 1012.19 1011.70 1011.61 1011.73 1012.24 1012.87 1013.13 1013.51 1013.94 1014.06 1013.67 1013.39 1013.06 1013.37 1013.70 1014.37 1014.56 1014.49 1014.70 1015.03 1014.85 1014.93 1014.85 1014.86 1014.72 1015.13 1014.72 1013.97 1013.91 1013.19 1012.36 1012.83 1012.95 1012.86
Thickness
5746 5747 5748 5749 5748 5749 5750 5749 5750 5750 5749 5749 5749 5749 5748 5746 5744 5743 5742 5735 5733 5732 5732 5732 5732 5733 5734 5733 5733 5732 5731 5731 5730 5730 5730 5730 5730 5729 5728 5727 5727 5728 5729
5746 5747 5749 5750 5750 5751 5750 5750 5751 5753 5753 5753 5752 5751 5752 5751 5749 5746 5745 5740 5737 5734 5735 5735 5735 5736 5737 5738 5738 5737 5735 5734 5733 5731 5732 5732 5731 5731 5731 5730 5730 5730 5731
5746 5747 5750 5750 5752 5752 5751 5751 5752 5753 5757 5756 5756 5756 5756 5755 5753 5750 5749 5746 5738 5736 5738 5738 5738 5738 5739 5740 5741 5741 5739 5738 5736 5735 5734 5734 5734 5733 5733 5733 5732 5733 5733
5747 5748 5750 5751 5752 5753 5753 5753 5754 5756 5757 5758 5759 5760 5760 5759 5755 5753 5752 5751 5747 5745 5741 5741 5741 5740 5739 5742 5743 5744 5744 5743 5741 5739 5737 5737 5737 5737 5737 5736 5735 5735 5735
5747 5749 5750 5752 5752 5754 5753 5754 5755 5754 5756 5759 5760 5761 5762 5762 5759 5758 5754 5752 5749 5747 5746 5745 5745 5744 5742 5744 5746 5747 5747 5746 5744 5743 5740 5740 5740 5741 5740 5740 5738 5737 5738
5748 5751 5753 5753 5753 5754 5753 5754 5754 5755 5756 5758 5762 5759 5762 5761 5760 5758 5758 5756 5753 5751 5749 5748 5750 5750 5748 5749 5751 5751 5750 5748 5747 5748 5746 5744 5744 5744 5744 5743 5743 5742 5742
5750 5752 5755 5755 5755 5755 5754 5754 5754 5755 5756 5757 5759 5761 5760 5761 5762 5762 5761 5760 5758 5757 5756 5752 5753 5754 5755 5753 5754 5755 5754 5752 5751 5752 5751 5748 5747 5747 5747 5746 5746 5746 5746
5750 5752 5754 5755 5756 5757 5753 5752 5754 5755 5755 5754 5754 5754 5754 5757 5762 5764 5763 5762 5762 5761 5761 5758 5756 5757 5759 5760 5761 5759 5759 5758 5756 5756 5755 5754 5752 5751 5751 5750 5750 5749 5749
5752 5752 5754 5755 5755 5755 5755 5755 5755 5755 5754 5755 5754 5752 5752 5754 5759 5764 5764 5766 5765 5765 5766 5763 5762 5762 5762 5764 5763 5765 5764 5762 5759 5758 5759 5759 5757 5755 5755 5753 5752 5751 5751
5752 5753 5752 5753 5753 5754 5756 5758 5759 5758 5757 5756 5755 5756 5755 5757 5759 5760 5766 5767 5768 5768 5771 5770 5769 5768 5767 5767 5767 5768 5767 5766 5762 5761 5762 5762 5761 5759 5758 5757 5755 5753 5752
5749 5751 5750 5751 5753 5754 5756 5759 5759 5757 5759 5759 5758 5756 5757 5759 5763 5762 5762 5765 5768 5773 5774 5775 5775 5775 5772 5772 5772 5772 5770 5767 5765 5765 5764 5765 5764 5764 5762 5761 5759 5757 5756
5749 5749 5750 5751 5753 5755 5757 5759 5760 5760 5760 5761 5760 5758 5759 5759 5761 5763 5764 5766 5767 5773 5777 5779 5780 5779 5777 5776 5775 5775 5773 5770 5769 5769 5769 5768 5767 5766 5765 5764 5763 5761 5760
5750 5750 5750 5752 5754 5755 5756 5758 5759 5760 5761 5762 5761 5761 5761 5763 5766 5766 5764 5765 5766 5773 5777 5781 5781 5781 5780 5779 5779 5775 5775 5773 5773 5772 5772 5770 5769 5768 5767 5766 5766 5765 5764
5754 5753 5752 5753 5754 5755 5757 5759 5761 5761 5760 5762 5761 5761 5762 5764 5765 5765 5764 5765 5764 5771 5776 5779 5782 5781 5782 5781 5780 5777 5778 5777 5776 5774 5773 5772 5771 5770 5769 5768 5768 5767 5767
5754 5753 5754 5755 5754 5755 5756 5759 5759 5759 5761 5761 5761 5762 5762 5764 5766 5766 5768 5770 5766 5761 5770 5780 5778 5779 5781 5781 5782 5781 5781 5780 5778 5777 5775 5774 5772 5771 5770 5769 5769 5768 5767
5753 5753 5753 5755 5755 5756 5757 5757 5758 5761 5761 5762 5763 5762 5764 5766 5767 5768 5768 5768 5768 5768 5763 5778 5780 5780 5780 5780 5780 5779 5781 5778 5777 5776 5775 5774 5774 5772 5771 5769 5768 5768 5767
5754 5752 5753 5755 5756 5756 5758 5757 5758 5760 5761 5761 5763 5762 5764 5765 5768 5767 5769 5768 5768 5767 5765 5775 5776 5779 5779 5780 5780 5779 5780 5780 5780 5778 5777 5776 5774 5772 5771 5770 5769 5768 5767
5753 5753 5755 5756 5756 5758 5759 5759 5760 5761 5761 5760 5762 5763 5764 5768 5767 5767 5766 5765 5766 5767 5766 5765 5776 5779 5777 5779 5780 5779 5780 5781 5782 5782 5778 5775 5774 5773 5771 5769 5769 5767 5765
5755 5756 5754 5754 5757 5759 5759 5760 5762 5762 5763 5763 5763 5762 5763 5764 5765 5768 5766 5766 5769 5769 5767 5768 5771 5777 5778 5778 5778 5779 5779 5780 5781 5781 5777 5776 5775 5774 5773 5771 5769 5766 5765
5755 5756 5756 5756 5757 5759 5760 5760 5761 5761 5762 5763 5764 5764 5765 5765 5765 5766 5767 5767 5766 5766 5768 5767 5770 5771 5773 5776 5776 5776 5777 5779 5781 5782 5779 5777 5775 5774 5772 5770 5768 5767 5766
5753 5754 5755 5755 5757 5759 5761 5760 5760 5760 5760 5760 5762 5763 5765 5766 5766 5766 5767 5768 5767 5765 5769 5768 5767 5769 5769 5769 5768 5775 5773 5776 5777 5776 5778 5779 5778 5775 5773 5770 5770 5770 5768
5751 5753 5754 5755 5756 5761 5764 5761 5762 5763 5763 5762 5761 5763 5764 5763 5763 5764 5765 5766 5767 5765 5764 5767 5769 5767 5767 5769 5772 5770 5771 5769 5766 5774 5773 5774 5775 5774 5773 5772 5771 5768 5766
5751 5752 5754 5756 5758 5761 5763 5762 5762 5765 5765 5766 5765 5764 5763 5767 5765 5766 5765 5763 5763 5764 5766 5768 5764 5765 5766 5768 5768 5766 5767 5767 5766 5771 5765 5768 5773 5770 5769 5771 5767 5763 5760
5752 5751 5753 5754 5757 5760 5761 5763 5764 5767 5766 5768 5766 5766 5766 5766 5766 5764 5764 5765 5766 5767 5765 5766 5767 5767 5767 5767 5765 5765 5763 5763 5765 5763 5761 5758 5766 5765 5766 5764 5760 5756 5752
5752 5754 5755 5752 5753 5758 5757 5756 5756 5763 5766 5767 5768 5767 5766 5764 5763 5760 5761 5761 5763 5764 5765 5764 5764 5762 5760 5758 5757 5757 5752 5748 5749 5752 5755 5751 5757 5757 5758 5757 5755 5748 5741
5755 5755 5754 5755 5754 5756 5758 5754 5752 5755 5759 5762 5766 5765 5760 5761 5759 5754 5755 5758 5758 5760 5760 5759 5756 5753 5752 5750 5747 5746 5745 5741 5739 5738 5739 5737 5743 5740 5741 5751 5743 5736 5734